STARLINK-35647 (66388 NORAD) Tracking and Keplerian Element Data

This shows tracking and keplerian element data for the satellite.

Feedback or suggestion? Click here.




ElementValue
Catalog66388
NameSTARLINK-35647
Epoch Orbit750
Epoch Day354.09228927
Epoch Year2025
RAAN229.8057
Inclination53.1584
Eccentricity0.0001463
Argument of Perigee97.4072
Mean Anonmoly262.7099
Mean Motion15.39620755
Decay Rate0.00025618
L11 66388U 25257J 25354.09228927 .00025618 00000+0 64827-3 0 9991
L22 66388 53.1584 229.8057 0001463 97.4072 262.7099 15.39620755 7505



Live tracking and technical data element details for STARLINK-35647 (NORAD 66388). STARLINK-35647 can be tracked NOW for your location showing map with azimuth and elevation plus other details from your city location.







IsCatalogInMostPopularTable: catalog: 66388, numindb: 13
Update: records affected: 1



GetName: 66388 STARLINK-35647

Hit Count: updated at: Tue, 21 Apr 2026 20:05:00 GMT